Regional Weather Roundup
Issued by NWS Upton, NY

Home | Current Version | Previous Version | Text Only | Print | Product List | Glossary On
Versions: 1 2 3 4 5 6 7 8 9 10 11 12 13 14 15 16 17 18 19 20 21 22 23 24 25 26 27 28 29 30 31 32 33 34 35 36 37 38 39 40 41 42 43 44 45 46 47 48 49 50
976
ASUS41 KOKX 240605
RWROKX

REGIONAL WEATHER ROUNDUP
NATIONAL WEATHER SERVICE NEW YORK NY
200 AM EDT TUE MAY 24 2016

NOTE: "FAIR" INDICATES FEW OR NO CLOUDS BELOW 12,000 FEET WITH NO
SIGNIFICANT WEATHER AND/OR OBSTRUCTIONS TO VISIBILITY.

NYZ071-072-176-178-NJZ106-104-240700-
NEW YORK CITY METRO AREA


CITY           SKY/WX    TMP DP  RH WIND       PRES   REMARKS
CENTRAL PARK   CLOUDY    63  48  58 CALM      29.93S
LAGUARDIA APRT LGT RAIN  64  55  72 SW3       29.89F
KENNEDY INTL   LGT RAIN  61  53  75 W9        29.91F
NEWARK/LIBERTY LGT RAIN  61  53  75 CALM      29.90F
BRNX BOT. GARD   N/A     61  48  63 E1        29.93R
TETERBORO      LGT RAIN  62  50  64 CALM      29.90S
$$

NYZ177-179-078>081-240700-
LONG ISLAND NEW YORK

CITY           SKY/WX    TMP DP  RH WIND       PRES   REMARKS
FARMINGDALE    CLOUDY    58  52  80 NW9       29.87F
ISLIP          LGT RAIN  56  52  86 NW8       29.86F
SHIRLEY        LGT RAIN  56  53  90 NW13      29.86F FOG
RIVERHEAD        N/A     55  54  94 NW1       29.85F
WESTHAMPTON    LGT RAIN  51  50  97 NW7       29.87F
EAST HAMPTON   LGT RAIN  56  54  94 N9        29.85F
MONTAUK POINT    N/A     54  54 100 N7        29.87F
$$

NYZ052-065-067-240700-
HUDSON VALLEY

CITY           SKY/WX    TMP DP  RH WIND       PRES   REMARKS
WHITE PLAINS   LGT RAIN  57  54  89 NW3       29.90
NEWBURGH       NOT AVBL
MONTGOMERY     CLOUDY    58  53  84 NE3       29.89F
POUGHKEEPSIE   CLOUDY    62  50  64 E3        29.90R
ALBANY         CLOUDY    65  49  56 S7        29.89F
$$

NJZ001-105-106-008-010-013-015-019>022-104-240700-
NEW JERSEY

CITY           SKY/WX    TMP DP  RH WIND       PRES   REMARKS
NEWARK/LIBERTY LGT RAIN  61  53  75 CALM      29.90F
TETERBORO      LGT RAIN  62  50  64 CALM      29.90S
CALDWELL       LGT RAIN  58  54  86 E5        29.91S
MORRISTOWN     CLOUDY    55  54  94 CALM      29.90F
SOMERVILLE     CLOUDY    57  55  93 CALM      29.87F
SUSSEX         CLOUDY    60  54  80 CALM      29.88F
ANDOVER          N/A     60  54  80 SW5       29.89S
TRENTON        CLOUDY    57  54  89 S7        29.88F
MILLVILLE      CLOUDY    56  54  93 W7        29.92F
ATLANTIC CITY  LGT RAIN  56  54  93 NW3       29.91F
WRIGHTSTOWN    CLOUDY    56  54  92 S3        29.88F
TOMS RIVER     CLOUDY    57  48  72 W7        29.90F
BELMAR         LGT RAIN  57  52  83 W3        29.91F
$$

PAZ047>061-062-071-240700-
EASTERN PENNSYLVANIA

CITY           SKY/WX    TMP DP  RH WIND       PRES   REMARKS
PHILADELPHIA   CLOUDY    58  52  80 SE6       29.92F
ALLENTOWN      CLOUDY    60  54  80 SW8       29.88F
SCRANTON       CLOUDY    65  43  44 N5        29.90F
$$

CTZ002-004>006-009-010-012-RIZ004-006-007-MAZ004-011-015-240700-
SOUTHERN NEW ENGLAND
 IN CT

CITY           SKY/WX    TMP DP  RH WIND       PRES   REMARKS
BRADLEY INTL   LGT RAIN  59  53  80 NW3       29.87F
HARTFORD       CLOUDY    62  54  74 CALM      29.88F
DANBURY        RAIN      56  53  90 W3        29.93F FOG
WTRBRY/OXFORD    N/A     55  48  76 NW7       29.93F
BRIDGEPORT     LGT RAIN  59  52  77 NW13      29.86F
MERIDEN        CLOUDY    58  53  84 CALM      29.88F
NEW HAVEN      LGT RAIN  57  52  83 NW7       29.87F
CHESTER        RAIN      55  54  94 NW6       29.87F
GROTON         LGT RAIN  57  56  96 N12       29.85F
WILLIMANTIC    LGT RAIN  60  53  77 NW5       29.88F

 IN RI

CITY           SKY/WX    TMP DP  RH WIND       PRES   REMARKS
PROVIDENCE     CLOUDY    61  53  75 N6        29.88F
BLOCK ISLAND   RAIN      55  54  96 NW6       29.86F
WESTERLY       LGT RAIN  58  53  84 NE5       29.86F

 IN MA

CITY           SKY/WX    TMP DP  RH WIND       PRES   REMARKS
BOSTON         CLOUDY    59  52  77 N8        29.90F
WORCESTER      NOT AVBL
WESTFIELD      LGT RAIN  58  54  86 CALM      29.89F
PROVINCETOWN   CLOUDY    52  50  93 NE10      29.91S
NANTUCKET      LGT RAIN  52  50  93 NE13      29.86S
$$

ANZ330-335-338-340-345-350-353-355-240700-
COASTAL MARINE OBSERVATIONS


STATION/POSITION TIME  SKY/WX   TEMP    WIND        PRES    VSBY  WAVE
                                AIR SEA DIR/SP/G                  HT/PER
                 (UTC)          (F)     (DEG/KT/KT) (MB)    (MI)  (FT/S)
NY HARB ENTRANCE 0450            60 57  290/ 12/ 14 1012.3          3/ 8
20S FIRE ISLAND  0450            57 55  320/ 16/ 17 1011.1          3/10
GREAT SOUTH BAY  0500            57 63  310/ 14/ 16   N/A
23 SSW MONTAUK P 0550            55 54  350/ 10/ 12 1010.1          3/ 9
15 E BARNEGAT LI 0522               54                N/A           4/ 8
HUDSON CANYON    0450            53 52              1010.7          5/ 7
KINGS POINT      0500            60 57              1012.5
EXECUTION ROCKS  NOT AVBL
CENTRAL LI SOUND 0515            59     300/ 10/ 14   N/A           0
EASTERN LI SOUND 0500            55 53  340/ 10/ 12   N/A
ROBBINS REEF     0500            62     260/  8/  9 1012.0
$$


>>>>>>>>>>>>>>>>>>>>>>>>>>>> KEY <<<<<<<<<<<<<<<<<<<<<<<<<<<
>                                                          <
>     SKY/WX - SKY CONDITION/PRESENT WEATHER               <
>     TMP    - TEMPERATURE IN FAHRENHEIT                   <
>     DP     - DEWPOINT IN FAHRENHEIT                      <
>     RH     - RELATIVE HUMIDITY IN PERCENT                <
>     WIND   - DIRECTION AND SPEED IN MPH                  <
>     PRES   - MEAN SEA LEVEL PRESSURE IN INCHES OF HG     <
>     WCI    - WIND CHILL INDEX                            <
>     VSB    - VISIBILITY IN MILES                         <
>     HX     - HEAT INDEX                                  <
>     TC     - TEMPERATURE IN CELSIUS                      <
>     VRB    - VARIABLE WIND DIRECTION                     <
>                                                          <
>>>>>>>>>>>>>>>>>>>>>>>>>>>> KEY <<<<<<<<<<<<<<<<<<<<<<<<<<<






USA.gov is the U.S. government's official web portal to all federal, state and local government web resources and services.